Regional Weather Roundup
Issued by NWS

Home | Current Version | Previous Version | Text Only | Print | Product List | Glossary Off
Versions: 1 2 3 4 5 6 7 8 9 10 11 12 13 14 15 16 17 18 19 20 21 22 23 24 25 26 27

000
ASUS45 KBOI 292110
RWRID

IDAHO REGIONAL WEATHER ROUNDUP
NATIONAL WEATHER SERVICE BOISE ID
300 PM MDT SAT APR 29 2017

NOTE: "FAIR" INDICATES FEW OR NO CLOUDS BELOW 12000 FEET
WITH NO SIGNIFICANT WEATHER AND/OR OBSTRUCTIONS TO VISIBILITY

IDZ012-014-292200-
SOUTHWEST IDAHO


CITY           SKY/WX    TMP DP  RH WIND       PRES   REMARKS
BOISE          SUNNY     58  28  32 NW7       30.22F
CALDWELL       SUNNY     61  33  35 VRB6      30.22F
MOUNTAIN HOME  SUNNY     59  26  28 NW8       30.21F
$$

IDZ016-017-292200-
SOUTHCENTRAL IDAHO


CITY           SKY/WX    TMP DP  RH WIND       PRES   REMARKS
BURLEY         MOSUNNY   56  27  32 SW15      30.21F
JEROME         SUNNY     55  26  32 SW13G22   30.22F
TWIN FALLS     SUNNY     55  30  38 W10G16    30.22F
$$

IDZ019>023-292200-
SOUTHEAST IDAHO


CITY           SKY/WX    TMP DP  RH WIND       PRES   REMARKS
IDAHO FALLS    MOSUNNY   53  23  31 VRB7      30.21F
POCATELLO      MOSUNNY   54  29  38 NW6       30.22F
REXBURG        SUNNY     51  25  36 W5        30.19F
$$

IDZ006-010-011-018-031-032-292200-
CENTRAL IDAHO MOUNTAINS


CITY           SKY/WX    TMP DP  RH WIND       PRES   REMARKS
MCCALL         CLOUDY    51  22  31 SW5       30.17F
HAILEY         MOSUNNY   52  30  43 SE18      30.19F
STANLEY          N/A     48   9  20 VRB5      30.19F
SALMON         SUNNY     55  27  33 NW6       30.12F
CHALLIS        SUNNY     56  18  22 N7        30.13F
$$

IDZ002-004-006-007-026-292200-
NORTHERN IDAHO


CITY           SKY/WX    TMP DP  RH WIND       PRES   REMARKS
LEWISTON       SUNNY     65  39  38 E9        30.16F
LOWELL           N/A     66  34  30 CALM      30.16F
COEUR D`ALENE  CLOUDY    56  35  45 SW8       30.16F
MULLAN PASS    PTSUNNY   36  29  75 VRB3      30.17F
$$




USA.gov is the U.S. government's official web portal to all federal, state and local government web resources and services.